User: anonymous   Login
Location: Unspecified
(0.0000°N, 0.0000°E)
Time: 05:14:18
(UTC+00:00)
Language:

Cosmos 1791 Rocket - Orbit

View from above orbital plane
View from above orbital plane
View from above satellite
View from above satellite

Ground track
Ground track

The orbit data is extracted from the following two-line orbital elements,

1 17067U 86086B   24197.57132844  .00000203  00000-0  18718-3 0  9999
2 17067  82.9431  27.4261 0032904 289.3469 124.6443 13.77946300893713
Epoch (UTC): 15 July 2024 13:42:42
Eccentricity: 0.0032904
inclination: 82.9431°
perigee height: 947 km
apogee height: 995 km
right ascension of ascending node: 27.4261°
argument of perigee: 289.3469°
revolutions per day: 13.77946300
mean anomaly at epoch: 124.6443°
orbit number at epoch: 89371

The dashed part of the orbit path shows where the satellite is in the earth's shadow,  

DLR